アトラス彗星

C/2024 T5 ( ATLAS )

English version
Home page
Updated on November 26, 2024

---------------------------------------------------------------------

・ プロフィール

発見日 2024年10月2日
発見光度 19.2等
発見者 Asteroid Terrestrial-Impact Last Alert System (ATLAS) search program

・ 軌道要素

Epoch 2024 Oct. 17.0 TT = JDT 2460600.5
T 2027 May 6.16867 TT                                   Rudenko
q   3.8466753            (2000.0)            P               Q
z  -0.0004429      Peri.  352.35794     -0.10415178     -0.61906722
 +/-0.0002785      Node   100.69336     +0.94926266     -0.29539016
e   1.0017039      Incl.   52.38758     +0.29673692     +0.72766780
From 120 observations 2024 Oct. 2-Nov. 11, mean residual 0".3.

・ 星図

・ 光度変化

        m1 = 5.0 + 5 logΔ + 10.0 log r

---------------------------------------------------------------------

軌道要素はM.P.E.C. 2024-V192に掲載されたものです。
星図はステラナビゲータ Ver.11 (アストロアーツ) で作成したものです。
光度グラフはComet for Windowsで作成したものです。

---------------------------------------------------------------------

Copyright(C) Seiichi Yoshida (comet@aerith.net). All rights reserved.